weather.gov     
National Weather Service

Terminal Aerodrome Forecast
NWS Homepage
This page is being discontinued on March 12, 2014.
The same data is available at this site. Please update your bookmarks.
Thank you, and we apologize for the inconvenience.
Please send an email to SR-SRH.Webmaster@noaa.gov with any concerns.


Current Version
Previous Version:    01  02  03  04  05  06  07  08  09  10  11  12  13  14  15  16  17  18  19  20  21  22  23  24  25  26  27  28  29  30  
   31  32  33  34  35  36  37  38  39  
[Printable]
903
FTUS43 KEAX 012200 AAA
TAFMKC
TAF AMD
KMKC 012239Z 0123/0218 VRB15G30KT 3SM -TSRA OVC030CB
     FM012330 15006KT P6SM VCTS SCT025CB OVC040
     FM020900 15006KT P6SM SCT015 BKN025
     FM021500 18010KT 4SM TSRA SCT025CB OVC035CB
      TEMPO 0215/0218 2SM TSRA OVC025CB=


U.S. Dept. of Commerce
NOAA National Weather Service
1325 East West Highway
Silver Spring, MD 20910
E-mail: w-nws.webmaster@noaa.gov
Page last modified: May 16, 2007
NATIONAL WEATHER SERVICE: for Safety, for Work, for Fun - FOR LIFE